Location: ?
(35.3436°N, 139.3168°E)
Time: 10:37:55
(UTC+00:00)

X-37B - Pass Details

Date: 26 January 2021
Orbit: 383 x 391 km, 45.0° (Epoch: 10 February)

Event Time Altitude Azimuth Distance (km) Brightness Sun altitude
Rises 08:50:25 0° 299° (WNW) 2,272 5.2 -9.7°
Reaches altitude 10° 08:53:12 10° 326° (NW) 1,419 3.7 -10.2°
Maximum altitude 08:55:02 14° 1° (N) 1,193 2.9 -10.6°
Enters shadow 08:56:41 11° 33° (NNE) 1,380 2.9 -10.9°
